User: anonymous   Login
Location: Unspecified
(0.0000°N, 0.0000°E)
Time: 23:52:58
(UTC+00:00)
Language:

STARLINK-30603 - Orbit

View from above orbital plane
View from above orbital plane
View from above satellite
View from above satellite

Ground track
Ground track

The orbit is defined by the following mean orbital elements,

1 58080U          26145.30968691 +.00000000 +00000-0 +26643-4 0 00009
2 58080  43.0030   5.1953 0001399 275.0137  85.0554 15.27576338    07
Epoch (UTC): 25 May 2026 07:25:56
Eccentricity: 0.0001399
inclination: 43.0030°
perigee height: 482 km
apogee height: 484 km
right ascension of ascending node: 5.1953°
argument of perigee: 275.0137°
revolutions per day: 15.27576338
mean anomaly at epoch: 85.0554°

The dashed part of the orbit path shows where the satellite is in the earth's shadow,  

DLR